{"data":{"norad_id":68578,"epoch":"2026-05-25T02:53:58.735680Z","epoch_age_seconds":64914,"freshness":"FRESH","line1":"1 68578U 26072F   26145.12081870  .00001960  00000+0  31035-3 0  9996","line2":"2 68578  51.9016 297.2024 0002294 135.3207 224.7939 14.76350272  7710","mean_motion":14.76350272,"eccentricity":0.0002294,"inclination_deg":51.9016,"raan_deg":297.2024,"arg_perigee_deg":135.3207,"mean_anomaly_deg":224.7939,"bstar":0.00031035,"rev_number":771,"period_min":97.537828746375,"perigee_km":639.25811934675,"apogee_km":642.47843896883,"semimajor_km":7019.0052791578,"source":"CELESTRAK","updated_at":"2026-05-25T13:38:07.946712Z"}}